Location: *
(46.6833°N, 2.4333°E)
Time: 08:23:59
(UTC+00:00)

Daily predictions for brighter satellites

Satellite Brightness Start Highest point End
(mag) Time Altitude Azimuth Time Altitude Azimuth Time Altitude Azimuth
ATLAS 5 CENTAUR R/B 2.5 16:36:39 10° NW 16:42:25 87° NE 16:49:03 10° SE
Okean-O 3.5 16:40:35 10° SE 16:44:22 28° ENE 16:48:10 10° N
FENGYUN 3A 4.4 16:39:21 10° S 16:44:43 61° WSW 16:50:08 10° NNW
Cosmos 1356 Rocket 4.1 16:41:38 10° SSE 16:45:25 34° E 16:49:16 10° NNE
Cosmos 2082 3.9 16:41:26 10° NNW 16:46:52 47° NE 16:52:16 10° SE
PSLV R/B 4.1 16:42:42 10° NNE 16:46:54 60° ESE 16:51:03 10° S
ALOS 3.3 16:44:07 10° S 16:48:40 52° W 16:53:15 10° NNW
ATLAS 3B R/B 4.3 16:45:10 10° NW 16:49:34 18° N 16:53:59 10° NE
Cosmos 1697 Rocket 3.6 16:44:58 10° SSE 16:49:48 30° ESE 16:54:39 10° NE
Cosmos 2233 Rocket 4.1 16:46:51 10° N 16:53:13 87° W 16:59:29 10° S
CZ-4B R/B 4.0 16:48:35 10° S 16:53:46 55° W 16:58:59 10° NNW
SMAP 3.1 16:49:36 10° SSE 16:54:09 57° ENE 16:58:44 10° N
Meteor 2-20 4.5 16:52:21 10° S 16:58:21 63° E 17:04:27 10° NNE
Cosmos 1500 Rocket 4.4 16:56:31 10° NNW 17:00:47 55° W 17:05:01 10° S
Cosmos 1680 Rocket 4.4 16:56:25 10° SSE 17:00:50 28° E 17:05:16 10° NE
Lacrosse 4 Rocket 1.8 16:57:25 10° S 17:01:15 41° ESE 17:05:04 10° NE
CZ-4 R/B 2.7 16:59:21 10° ESE 17:02:18 19° ENE 17:05:13 10° NNE
Cosmos 1633 Rocket 3.7 17:00:00 10° N 17:03:59 32° ENE 17:07:58 10° SE
Okean O Rocket 3.4 17:02:48 10° SSW 17:06:52 37° W 17:10:56 10° NNW
Cosmos 1656 3.6 17:01:49 10° SSW 17:07:19 69° ESE 17:12:47 10° NNE
Cosmos 773 Rocket 4.3 17:03:30 10° SSW 17:08:39 68° WNW 17:13:52 10° NNE
Sich 1 3.0 17:07:19 10° N 17:11:39 62° ENE 17:15:59 10° SSE
YAOGAN 6 3.7 17:10:01 10° ESE 17:12:45 22° ENE 17:15:32 10° NNE
Cosmos 1151 Rocket 4.1 17:09:29 10° SE 17:12:58 24° E 17:16:29 10° NE
Cosmos 1666 Rocket 3.6 17:14:03 10° N 17:18:21 54° ENE 17:22:35 10° SSE
CZ-4B R/B 4.4 17:16:39 10° NNW 17:18:25 14° WNW 17:20:11 10° W
IRS-1C Rocket 4.4 17:13:48 10° S 17:19:04 73° WSW 17:24:22 10° NNW
Cosmos 1328 Rocket 4.4 17:15:36 10° SSE 17:19:26 30° E 17:23:16 10° NNE
COSMO-SKYMED 1 3.5 17:16:35 10° NE 17:20:22 28° E 17:24:07 10° SSE
Cosmos 1464 Rocket 3.9 17:14:46 10° N 17:20:54 63° ENE 17:26:57 10° SSE
AQUARIUS 4.2 17:17:41 10° SSE 17:22:11 85° WSW 17:26:43 10° NNW
APEX 4.1 17:23:17 10° SSE 17:25:56 21° ESE 17:26:25 20° E
Cosmos 923 Rocket 4.0 17:21:27 10° S 17:26:34 61° ESE 17:31:43 10° NNE
Cosmos 1862 3.3 17:22:43 10° N 17:26:40 57° E 17:30:35 10° SSE
Cosmos 2221 4.3 17:25:21 10° SW 17:29:16 33° WNW 17:33:15 10° N
Cosmos 1624 Rocket 4.5 17:25:30 10° N 17:30:32 40° ENE 17:35:32 10° SE
Cosmos 2056 Rocket 3.9 17:26:36 10° N 17:31:24 38° ENE 17:36:12 10° SE
Cosmos 1072 Rocket 4.4 17:25:22 10° N 17:31:32 81° E 17:37:44 10° S
USA 215 3.9 17:30:23 17° ENE 17:34:54 39° N 17:40:50 10° NW
Cosmos 397 4.3 17:30:51 10° NNW 17:34:59 74° NE 17:39:13 10° SE
BREEZE-M DEB (TANK) 3.4 17:35:53 10° SW 17:41:36 38° SSE 17:43:08 24° ESE
CSL-04 Rocket 3.9 17:37:52 10° SE 17:42:55 45° ENE 17:47:57 10° N
NOSS 2-3 (E) 3.7 17:39:32 10° SSW 17:43:51 68° SE 17:47:11 21° NE
YAOGAN 1 2.9 17:42:06 10° SE 17:46:10 42° ENE 17:50:16 10° N
USA 229 DEB 4.1 17:40:28 10° WSW 17:46:59 59° NW 17:53:23 12° NE
USA 229 4.1 17:40:35 10° WSW 17:47:05 59° NW 17:53:27 12° NE
Cosmos 1470 Rocket 3.7 17:45:10 10° N 17:49:35 53° ENE 17:53:57 10° SSE
SeaSat 1 2.4 17:45:46 10° SSE 17:50:41 85° ENE 17:55:40 10° NNW
Meteor 2-11 Rocket 4.3 17:44:34 10° N 17:50:43 75° E 17:56:51 10° SSE
NOSS 3-1 (C) 3.9 17:45:16 10° WSW 17:50:49 57° NW 17:56:33 13° NE
NOSS 3-1 (A) 3.4 17:46:28 10° SW 17:52:03 79° NW 17:57:20 16° NE
SL-16 R/B 4.0 17:49:48 10° SE 17:50:59 13° SE 17:50:59 13° SE
NOSS 2-3 (D) 3.6 17:49:08 10° SSW 17:53:28 76° SE 17:56:24 25° NE
ERBS 3.2 17:50:31 10° WSW 17:53:41 41° NNW 17:54:56 28° NNE
Cosmos 2346 Rocket 4.4 17:48:45 10° S 17:54:51 61° E 18:00:56 10° NNE
Cosmos 1980 Rocket 2.3 17:49:38 10° S 17:55:08 54° ESE 17:58:45 21° NE
Envisat 3.2 17:54:54 10° S 17:59:58 73° WSW 18:05:04 10° NNW
Cosmos 2297 Rocket 4.2 17:55:08 10° NW 18:00:02 31° WSW 18:04:53 10° SSW
Cosmos 2227 Rocket 4.0 17:55:30 10° NW 18:00:30 33° WSW 18:05:29 10° SSW
SKYMED 2 3.5 18:04:18 10° NNE 18:08:41 88° E 18:13:02 10° SSW
Cosmos 1420 Rocket 4.3 18:08:53 10° N 18:13:48 41° ENE 18:13:54 41° ENE
GEOS 3 Rocket 3.8 18:13:44 24° NNE 18:16:55 70° NW 18:22:09 10° SW
Cosmos 2263 Rocket 2.3 18:13:14 10° NNW 18:18:39 49° ENE 18:19:31 45° E
Cosmos 2034 Rocket 4.4 18:13:28 10° NNW 18:19:48 68° W 18:26:06 10° S
Cosmos 1452 Rocket 4.1 18:15:06 10° N 18:19:20 37° NE 18:19:20 37° NE
Okean-O 4.4 18:16:45 10° SSW 18:20:45 33° W 18:24:47 10° NNW
CENTAUR R/B 4.0 18:15:31 10° NW 18:21:53 29° NNE 18:23:48 26° NE
Cosmos 1371 Rocket 4.2 18:16:49 10° NNW 18:22:01 72° WSW 18:27:09 10° SSE
Cosmos 2369 4.4 18:18:24 10° SW 18:23:55 52° WNW 18:28:43 14° NNE
Geosat 4.4 18:21:49 18° NNE 18:25:28 60° WNW 18:30:24 10° SW
Cosmos 158 Rocket 3.9 18:21:35 10° SSW 18:26:53 86° ESE 18:29:07 36° NNE
NOSS 2-3 (C) 4.3 18:27:04 10° WSW 18:31:27 55° NW 18:33:20 34° NNE
Cosmos 1697 Rocket 3.6 18:28:06 10° SW 18:33:33 47° WNW 18:37:52 16° NNE
CZ-4 R/B 2.6 18:33:05 10° S 18:37:03 43° W 18:40:57 10° NNW
Cosmos 1634 Rocket 3.8 18:31:57 10° N 18:38:11 77° E 18:44:20 10° SSE
USA 238 DEB 4.2 18:32:34 10° NNW 18:39:20 44° NE 18:40:01 43° NE
USA 238 4.2 18:32:40 10° NNW 18:39:26 43° NE 18:40:06 42° NE
Lacrosse 4 Rocket 3.3 18:36:43 10° WSW 18:40:04 24° NW 18:41:37 19° NNW
Cosmos 2278 4.5 18:36:52 10° SW 18:42:23 50° WNW 18:46:06 21° N
ATLAS 3B R/B 3.9 18:37:27 10° NNW 18:42:46 24° NNE 18:42:46 24° NNE
Ariane Rocket 3.2 18:43:46 57° NNE 18:43:46 57° NNE 18:47:56 10° N
NOSS 3-2 (A) 4.3 18:37:09 10° NNW 18:44:04 44° NE 18:44:50 43° NE
Cosmos 2228 Rocket 3.6 18:39:48 10° S 18:43:04 49° S 18:43:04 49° S
Cosmos 1939 Rocket 4.5 18:46:41 27° NNW 18:46:41 27° NNW 18:48:37 10° NNW
Tsikada Rocket 4.3 18:40:25 10° SSW 18:46:46 68° WNW 18:53:12 10° N
Cosmos 2142 Rocket 4.4 18:40:28 10° N 18:46:53 70° E 18:48:54 45° SSE
COSMO-SKYMED 1 4.3 18:52:46 11° N 18:56:31 31° WNW 19:00:20 10° SW
Cosmos 2279 Rocket 4.2 18:51:35 10° N 18:56:31 54° NNE 18:56:31 54° NNE
Meteor 1-26 Rocket 4.2 18:54:42 10° S 19:00:42 89° WNW 19:01:41 64° N
H-2A R/B 4.4 19:16:40 13° N 19:16:40 13° N 19:17:14 10° N
Timation 1 Rocket 4.4 19:09:34 10° NNW 19:15:24 73° WSW 19:15:24 73° WSW
USA 215 3.3 19:17:45 68° N 19:17:45 68° N 19:23:51 10° NW
NOSS 3-2 (C) 4.4 19:22:12 10° NW 19:27:53 46° N 19:27:53 46° N
SL-16 R/B 4.0 19:30:58 10° SSW 19:32:55 22° SSW 19:32:55 22° SSW
Cosmos 1980 Rocket 3.8 19:34:31 10° WSW 19:39:26 29° NW 19:40:34 27° NNW
Cosmos 2322 Rocket 4.4 19:38:56 10° SSW 19:39:46 15° SSW 19:39:46 15° SSW
Cosmos 2263 Rocket 4.0 19:57:37 10° NW 20:01:15 26° W 20:01:15 26° W
CENTAUR R/B 3.9 20:06:14 10° NW 20:10:59 41° NNW 20:10:59 41° NNW
